Regional Weather Roundup
Issued by NWS Portland, ME

Home | Current Version | Previous Version | Text Only | Print | Product List | Glossary On
Versions: 1 2 3 4 5 6 7 8 9 10 11 12 13 14 15 16 17 18 19 20 21 22 23 24 25 26 27 28 29 30 31 32 33 34 35 36 37 38 39 40 41 42 43 44 45 46 47 48 49 50
000
ASUS41 KGYX 270810
RWRGYX
WEATHER ROUNDUP FOR MAINE AND NEW HAMPSHIRE
NATIONAL WEATHER SERVICE GRAY ME
300 AM EST MON FEB 27 2017

MEZ002-005-006-010-012-015-018-020-021-024-026-027-029-270900-
MAINE

CITY           SKY/WX    TMP DP  RH WIND       PRES   REMARKS
PORTLAND       CLEAR     27  13  55 SW10      30.18R WCI  17
SANFORD        PTCLDY    24  16  71 S3        30.19R
BAR HARBOR     CLEAR     22  14  71 SW5       30.16R
WISCASSET      CLEAR     20  15  81 CALM      30.18R
ROCKLAND       CLEAR     19  14  81 CALM      30.16S
FRYEBURG       CLEAR     24  13  62 SW5       30.13R
LEWISTONAUBURN CLEAR     24  14  65 S7        30.14S
AUGUSTA        PTCLDY    21  10  62 S5        30.14R
WATERVILLE     CLEAR     19  12  74 S3        30.10R
BANGOR         CLEAR     20  11  68 S6        30.13S
GREENVILLE       N/A     15   8  73 CALM      29.98R
MILLINOCKET    CLEAR     15   9  76 CALM      30.07R
HOULTON        CLEAR     17  10  74 S6        30.01S
PRESQUE ISLE   CLEAR     18  11  74 S7        29.99R
FRENCHVILLE    CLEAR     16   7  67 S7        29.89S
CARIBOU        CLEAR     18  10  71 S7        29.95R
$$

NHZ002-005-008-009-011-012-014-270900-
NEW HAMPSHIRE

CITY           SKY/WX    TMP DP  RH WIND       PRES   REMARKS
PORTSMOUTH     CLEAR     28  16  61 S8        30.20R
ROCHESTER      CLEAR     26  14  60 CALM      30.18S
NASHUA         CLEAR     27  20  75 CALM      30.22S
MANCHESTER     CLEAR     29  16  58 S7        30.19S
CONCORD        CLEAR     23  16  74 S7        30.18F
LACONIA        CLEAR     27  16  63 MISG      30.15S
PLYMOUTH       FAIR      19  16  89 CALM      30.15F
BERLIN         MOCLDY    12   8  84 CALM      30.06S
WHITEFIELD     PTCLDY    17  12  80 CALM      30.07F
JAFFREY        CLEAR     26  15  63 S3        30.17S
KEENE          CLEAR     23  19  85 CALM      30.21R
LEBANON        CLEAR     29  18  63 S14       30.14S WCI  18
MT WASHINGTON  FOG        5   5 100 W58         N/A  VSB 0   WCI -25
$$

VTZ005-007-008-270900-
VERMONT

CITY           SKY/WX    TMP DP  RH WIND       PRES   REMARKS
ST JOHNSBURY     N/A     17  14  88 MISG      30.08F
MONTPELIER     CLOUDY    29  17  61 S8        30.09F
BURLINGTON     PTCLDY    30  18  60 S13       30.07F WCI  20
$$

MAZ007-012-024-CTZ003-RIZ002-NYZ038-NYZ072-270900-
SOUTHERN NEW ENGLAND AND NY

CITY           SKY/WX    TMP DP  RH WIND       PRES   REMARKS
BOSTON         PTCLDY    31  19  61 SW13      30.26R
WORCESTER      CLEAR     26  15  63 W13       30.18S WCI  15
NANTUCKET      CLEAR     32  18  56 W8        30.30R
PROVIDENCE     CLEAR     29  18  63 SW5       30.28R
HARTFORD       CLEAR     27  18  69 S8        30.25S
ALBANY         PTCLDY    29  18  63 S6        30.21S
NEW YORK CITY  CLEAR     38  18  44 SW9       30.30R
$$

ANZ081-ANZ082-ANZ150-NHZ014-MEZ023>029-270900-
COASTAL MARINE OBSERVATIONS

STATION/POSITION TIME  TEMP    WIND        PRES    WAVE
                       AIR SEA DIR/SP/G            HT/PER
                 (UTC) (F)     (DEG/KT/KT) (MB)    (FT/S)
MOUNT DESERT ROC 0800   31                 1021.6R
MATINICUS ROCK   0700   31     290/ 10/ 11 1021.1R
ISLE OF SHOALS   0700   33     240/ 18/ 19 1022.7R
JEFFREYS LEDGE   0706      43                N/A     4/ 9
CASHES LEDGE BUO 0750   34 41              1022.5R   5/11
GEORGES BANK BUO 0750   41 43              1022.9R  10/ 8
$$

.............KEY..............
   WCI - WIND CHILL
   TC  - TEMPERATURE IN CELSIUS
   VSB - VISIBILITY IN MILES
   HX  - HEAT INDEX
   FAIR- INDICATES FEW OR NO CLOUDS BELOW 12,000 FT, WITH NO
         SIGNIFICANT WEATHER AND/OR OBSTRUCTIONS TO VISIBILITY.






USA.gov is the U.S. government's official web portal to all federal, state and local government web resources and services.